Location: Unspecified
(43.4354°N, 0.0000°E)
Time: 05:19:36
(UTC+00:00)

A-11 Canister half - Pass Details

Date: 25 June 2019
Orbit: 1514 x 1686 km, 47.2° (Epoch: 17 August)

Event Time Altitude Azimuth Distance (km) Brightness Sun altitude
Rises 10:16:54 0° 240° (WSW) 4,916 11.5 60.4°
Reaches altitude 10° 10:20:05 10° 240° (WSW) 3,916 11.1 60.9°
Maximum altitude 10:30:08 83° 154° (SSE) 1,644 10.8 62.4°
Drops below altitude 10° 10:39:52 10° 69° (ENE) 3,796 11.4 63.7°
Sets 10:42:54 0° 68° (ENE) 4,760 11.7 64.1°
